Location: *
(49.6619°S, 177.4603°W)
Time: 06:26:20
(UTC+00:00)

SPOT 1/Viking Rocket - Pass Details

Date: 31 January 2023
Orbit: 777 x 792 km, 98.3° (Epoch: 01 April)

Event Time Altitude Azimuth Distance (km) Brightness Sun altitude
Rises 09:15:26 0° 166° (SSE) 3,337 7.3 -13.4°
Reaches altitude 10° 09:17:47 10° 166° (SSE) 2,400 6.6 -13.6°
Maximum altitude 09:23:07 89° 73° (ENE) 810 3.6 -14.2°
Drops below altitude 10° 09:28:22 10° 344° (NNW) 2,364 5.7 -14.7°
Enters shadow 09:29:27 - 344° (NNW) 2,794 6.1 -14.8°
